EN

Hourly Weather Amalner

Today, 22 January, Friday

Time Temperature Precipitation Wind Pressure Humidity
00:00 +24°C° 0 mm 2 mps 743 mmHg 27%
01:00 +23°C° 0 mm 1 mps 743 mmHg 28%
02:00 +22°C° 0 mm 1 mps 743 mmHg 30%
03:00 +22°C° 0 mm 1 mps 743 mmHg 30%
04:00 +21°C° 0 mm 1 mps 743 mmHg 31%
05:00 +21°C° 0 mm 1 mps 743 mmHg 31%
06:00 +22°C° 0 mm 1 mps 743 mmHg 29%
07:00 +22°C° 0 mm 1 mps 744 mmHg 26%
08:00 +23°C° 0 mm 2 mps 744 mmHg 24%
09:00 +25°C° 0 mm 2 mps 744 mmHg 21%
10:00 +28°C° 0 mm 2 mps 744 mmHg 19%
11:00 +30°C° 0 mm 2 mps 744 mmHg 16%
12:00 +31°C° 0 mm 2 mps 743 mmHg 15%
13:00 +32°C° 0 mm 1 mps 743 mmHg 15%
14:00 +31°C° 0 mm 0 mps 742 mmHg 14%
15:00 +33°C° 0 mm 1 mps 742 mmHg 15%
16:00 +33°C° 0 mm 1 mps 742 mmHg 16%
17:00 +33°C° 0 mm 1 mps 741 mmHg 16%
18:00 +31°C° 0 mm 1 mps 742 mmHg 18%
19:00 +30°C° 0 mm 2 mps 742 mmHg 19%
20:00 +28°C° 0 mm 2 mps 742 mmHg 20%
21:00 +27°C° 0 mm 2 mps 742 mmHg 22%
22:00 +26°C° 0 mm 1 mps 742 mmHg 23%
23:00 +25°C° 0 mm 1 mps 742 mmHg 25%

Tomorrow, 23 January, Saturday

Time Temperature Precipitation Wind Pressure Humidity
00:00 +24°C° 0 mm 1 mps 742 mmHg 26%
01:00 +22°C° 0 mm 0 mps 742 mmHg 27%
02:00 +21°C° 0 mm 0 mps 742 mmHg 28%
03:00 +21°C° 0 mm 0 mps 742 mmHg 29%
04:00 +20°C° 0 mm 0 mps 741 mmHg 30%
05:00 +20°C° 0 mm 0 mps 741 mmHg 31%
06:00 +23°C° 0 mm 1 mps 742 mmHg 29%
07:00 +24°C° 0 mm 1 mps 743 mmHg 27%
08:00 +25°C° 0 mm 1 mps 743 mmHg 25%
09:00 +25°C° 0 mm 0 mps 744 mmHg 23%
10:00 +27°C° 0 mm 0 mps 744 mmHg 21%
11:00 +29°C° 0 mm 0 mps 744 mmHg 19%
12:00 +32°C° 0 mm 1 mps 743 mmHg 18%
13:00 +34°C° 0 mm 2 mps 742 mmHg 17%
14:00 +36°C° 0 mm 2 mps 741 mmHg 16%
15:00 +36°C° 0 mm 2 mps 741 mmHg 17%
16:00 +36°C° 0 mm 2 mps 741 mmHg 18%
17:00 +35°C° 0 mm 1 mps 741 mmHg 19%
18:00 +34°C° 0 mm 2 mps 741 mmHg 21%
19:00 +31°C° 0 mm 2 mps 742 mmHg 22%
20:00 +29°C° 0 mm 2 mps 742 mmHg 24%
21:00 +28°C° 0 mm 2 mps 742 mmHg 25%
22:00 +27°C° 0 mm 2 mps 743 mmHg 26%
23:00 +26°C° 0 mm 2 mps 743 mmHg 27%

Day after tomorrow, 24 January, Sunday

Time Temperature Precipitation Wind Pressure Humidity
00:00 +25°C° 0 mm 2 mps 742 mmHg 28%
01:00 +24°C° 0 mm 2 mps 742 mmHg 29%
02:00 +23°C° 0 mm 1 mps 742 mmHg 30%
03:00 +23°C° 0 mm 2 mps 742 mmHg 32%
04:00 +21°C° 0 mm 2 mps 742 mmHg 34%
05:00 +20°C° 0 mm 3 mps 742 mmHg 35%
06:00 +21°C° 0 mm 3 mps 742 mmHg 36%
07:00 +21°C° 0 mm 3 mps 743 mmHg 37%
08:00 +22°C° 0 mm 3 mps 743 mmHg 38%
09:00 +25°C° 0 mm 2 mps 744 mmHg 35%
10:00 +27°C° 0 mm 2 mps 744 mmHg 31%
11:00 +29°C° 0 mm 2 mps 744 mmHg 28%
12:00 +31°C° 0 mm 2 mps 743 mmHg 25%
13:00 +33°C° 0 mm 3 mps 743 mmHg 21%
14:00 +34°C° 0 mm 3 mps 742 mmHg 18%
15:00 +34°C° 0 mm 3 mps 742 mmHg 18%
16:00 +34°C° 0 mm 3 mps 742 mmHg 18%
17:00 +34°C° 0 mm 4 mps 742 mmHg 18%
18:00 +31°C° 0 mm 3 mps 742 mmHg 20%
19:00 +29°C° 0 mm 2 mps 743 mmHg 22%
20:00 +28°C° 0 mm 2 mps 744 mmHg 25%
21:00 +27°C° 0 mm 2 mps 744 mmHg 26%
22:00 +26°C° 0 mm 2 mps 744 mmHg 27%
23:00 +25°C° 0 mm 2 mps 744 mmHg 28%

25 January, Monday

Time Temperature Precipitation Wind Pressure Humidity
00:00 +24°C° 0 mm 2 mps 744 mmHg 28%
01:00 +24°C° 0 mm 2 mps 743 mmHg 28%
02:00 +23°C° 0 mm 1 mps 743 mmHg 28%
03:00 +21°C° 0 mm 2 mps 743 mmHg 29%
04:00 +21°C° 0 mm 2 mps 743 mmHg 29%
05:00 +20°C° 0 mm 2 mps 743 mmHg 30%
06:00 +21°C° 0 mm 2 mps 743 mmHg 29%
07:00 +21°C° 0 mm 2 mps 744 mmHg 29%
08:00 +23°C° 0 mm 2 mps 745 mmHg 29%
09:00 +25°C° 0 mm 2 mps 745 mmHg 26%
10:00 +27°C° 0 mm 2 mps 745 mmHg 23%
11:00 +29°C° 0 mm 2 mps 745 mmHg 19%
12:00 +30°C° 0 mm 2 mps 744 mmHg 18%
13:00 +31°C° 0 mm 1 mps 743 mmHg 17%
14:00 +32°C° 0 mm 1 mps 742 mmHg 16%
15:00 +32°C° 0 mm 1 mps 742 mmHg 17%
16:00 +32°C° 0 mm 2 mps 742 mmHg 17%
17:00 +32°C° 0 mm 2 mps 742 mmHg 17%
18:00 +30°C° 0 mm 2 mps 742 mmHg 18%
19:00 +29°C° 0 mm 3 mps 743 mmHg 19%
20:00 +27°C° 0 mm 3 mps 743 mmHg 20%
21:00 +26°C° 0 mm 2 mps 743 mmHg 21%
22:00 +25°C° 0 mm 1 mps 743 mmHg 22%
23:00 +24°C° 0 mm 1 mps 743 mmHg 24%

26 January, Tuesday

Time Temperature Precipitation Wind Pressure Humidity
00:00 +23°C° 0 mm 1 mps 743 mmHg 24%
01:00 +23°C° 0 mm 1 mps 743 mmHg 25%
02:00 +22°C° 0 mm 1 mps 743 mmHg 25%
03:00 +22°C° 0 mm 1 mps 743 mmHg 26%
04:00 +21°C° 0 mm 1 mps 742 mmHg 27%
05:00 +20°C° 0 mm 2 mps 742 mmHg 28%
06:00 +20°C° 0 mm 2 mps 743 mmHg 27%
07:00 +21°C° 0 mm 2 mps 744 mmHg 27%
08:00 +21°C° 0 mm 2 mps 744 mmHg 26%
09:00 +24°C° 0 mm 2 mps 744 mmHg 23%
10:00 +26°C° 0 mm 2 mps 744 mmHg 21%
11:00 +28°C° 0 mm 2 mps 744 mmHg 18%
12:00 +29°C° 0 mm 2 mps 743 mmHg 17%
13:00 +31°C° 0 mm 1 mps 743 mmHg 16%
14:00 +32°C° 0 mm 1 mps 742 mmHg 14%
15:00 +32°C° 0 mm 1 mps 742 mmHg 14%
16:00 +32°C° 0 mm 2 mps 742 mmHg 14%
17:00 +32°C° 0 mm 2 mps 741 mmHg 14%
18:00 +30°C° 0 mm 3 mps 742 mmHg 15%
19:00 +28°C° 0 mm 3 mps 742 mmHg 17%
20:00 +26°C° 0 mm 3 mps 743 mmHg 18%
21:00 +25°C° 0 mm 2 mps 743 mmHg 19%
22:00 +24°C° 0 mm 2 mps 743 mmHg 20%
23:00 +23°C° 0 mm 2 mps 743 mmHg 21%

27 January, Wednesday

Time Temperature Precipitation Wind Pressure Humidity
00:00 +23°C° 0 mm 2 mps 743 mmHg 22%
01:00 +21°C° 0 mm 2 mps 742 mmHg 23%
02:00 +20°C° 0 mm 2 mps 742 mmHg 23%
03:00 +20°C° 0 mm 2 mps 742 mmHg 24%
04:00 +19°C° 0 mm 2 mps 742 mmHg 25%
05:00 +19°C° 0 mm 2 mps 742 mmHg 26%
06:00 +19°C° 0 mm 2 mps 743 mmHg 26%
07:00 +20°C° 0 mm 2 mps 743 mmHg 25%
08:00 +20°C° 0 mm 2 mps 744 mmHg 25%
09:00 +23°C° 0 mm 1 mps 744 mmHg 22%
10:00 +25°C° 0 mm 1 mps 744 mmHg 20%
11:00 +27°C° 0 mm 1 mps 744 mmHg 17%
12:00 +29°C° 0 mm 1 mps 743 mmHg 15%
13:00 +30°C° 0 mm 1 mps 742 mmHg 13%
14:00 +29°C° 0 mm 0 mps 741 mmHg 12%
15:00 +31°C° 0 mm 1 mps 741 mmHg 12%
16:00 +31°C° 0 mm 2 mps 741 mmHg 12%
17:00 +31°C° 0 mm 2 mps 741 mmHg 12%
18:00 +29°C° 0 mm 2 mps 741 mmHg 13%
19:00 +28°C° 0 mm 3 mps 742 mmHg 14%
20:00 +26°C° 0 mm 3 mps 743 mmHg 15%
21:00 +25°C° 0 mm 3 mps 743 mmHg 17%
22:00 +24°C° 0 mm 2 mps 743 mmHg 18%
23:00 +23°C° 0 mm 2 mps 743 mmHg 20%
Show more